Regional Weather Roundup
Issued by NWS Wilmington, NC

Home | Current Version | Previous Version | Text Only | Print | Product List | Glossary On
Versions: 1 2 3 4 5 6 7 8 9 10 11 12 13 14 15 16 17 18 19 20 21 22 23 24 25 26 27 28 29 30 31 32 33 34 35 36 37 38 39 40 41 42 43 44 45 46 47 48 49 50
000
ASUS42 KILM 120913
RWRILM
RWRILM
REGIONAL HOURLY WEATHER ROUNDUP
NATIONAL WEATHER SERVICE WILMINGTON NC
400 AM EST TUE DEC 12 2017

NOTE: "FAIR" INDICATES FEW OR NO CLOUDS BELOW 12,000 FEET WITH NO
SIGNIFICANT WEATHER AND/OR OBSTRUCTIONS TO VISIBILITY.

...............WFO WILMINGTON COUNTY WARNING AREA...............

......COASTAL NC AND SC COUNTIES......

CITY           SKY/WX    TMP DP  RH WIND       PRES   REMARKS
WILMINGTON     CLEAR     48  41  76 SW9       29.88F
N MYRTLE BEACH CLEAR     50  37  61 SW13      29.89F
MYRTLE BEACH   CLEAR     48  37  65 SW9       29.91F

......INLAND NC AND SC COUNTIES.......

CITY           SKY/WX    TMP DP  RH WIND       PRES   REMARKS
LUMBERTON      CLEAR     40  35  83 S6        29.83F
ELIZABETHTOWN  NOT AVBL
WHITEVILLE     CLEAR     42  36  80 SW6       29.87F
FLORENCE       CLEAR     43  36  76 SW9       29.85F
DARLINGTON     CLEAR     41  36  82 SW7       29.83F
KINGSTREE      FAIR      41  36  81 CALM      29.88F
HARTSVILLE     FAIR      39  34  81 SW5       29.82F
BENNETTSVILLE  FAIR      41  37  87 S5        29.82F
CONWAY         FAIR      41  37  87 S5        29.89F
GEORGETOWN     FAIR      43  39  87 SW8       29.92F
MARION         FAIR      41  36  81 S8        29.87F

....................REST OF NORTH CAROLINA......................

.........EASTERN NC.........

CITY           SKY/WX    TMP DP  RH WIND       PRES   REMARKS
CAPE HATTERAS  CLEAR     47  42  83 W7        29.87F
JACKSONVILLE   CLEAR     35  34  96 S7        29.86F WCI  29
MOREHEAD CITY  CLEAR     52  43  71 SW10      29.88F
KENANSVILLE    CLEAR     37  34  87 CALM      29.85F
NEW BERN       CLEAR     38  35  89 S7        29.87F WCI  33
ELIZABETH CITY CLEAR     40  37  89 S7        29.83F

.........CENTRAL NC.........

CITY           SKY/WX    TMP DP  RH WIND       PRES   REMARKS
RALEIGH DURHAM CLOUDY    41  33  73 SW10      29.78F
ROCKY MOUNT    CLOUDY    38  33  82 S6        29.81F WCI  33
ROANOKE RAPIDS NOT AVBL
FAYETTEVILLE   CLEAR     40  34  79 S7        29.82F
HOFFMAN        MOCLDY    35  32  88 CALM      29.80F

.........WESTERN NC.........

CITY           SKY/WX    TMP DP  RH WIND       PRES   REMARKS
CHARLOTTE      CLOUDY    42  35  76 SW7       29.78F
GREENSBORO     CLOUDY    38  33  82 SW8       29.73F WCI  32
HICKORY        NOT AVBL
BOONE          NOT AVBL
ASHEVILLE      NOT AVBL

.....................REST OF SOUTH CAROLINA.....................

.........EASTERN SC.........

CITY           SKY/WX    TMP DP  RH WIND       PRES   REMARKS
CHARLESTON     CLEAR     44  38  79 SW7       29.93F
BEAUFORT MCAS  CLEAR     46  40  79 SW7       29.95F
HILTON HEAD    CLEAR     48  39  71 SW9       29.96F

.........CENTRAL SC.........

CITY           SKY/WX    TMP DP  RH WIND       PRES   REMARKS
COLUMBIA       CLEAR     45  37  73 SW8       29.85F
ORANGEBURG     CLEAR     39  34  82 S6        29.89F WCI  35
SUMTER SHAW    CLEAR     46  35  65 SW13      29.83F

.........WESTERN SC.........

CITY           SKY/WX    TMP DP  RH WIND       PRES   REMARKS
GREENVILLE     NOT AVBL
ROCK HILL      PTCLDY    44  34  67 SW10      29.78F
ANDERSON       PTCLDY    39  33  79 SW9       29.81F WCI  33
CLEMSON        NOT AVBL
GREENWOOD      PTCLDY    42  35  76 SW12      29.84F


...................COASTAL AND OFFSHORE REPORTS..................

................LOCAL PIERS AND NC RESERVE................


STATION/POSITION TIME  SKY/WX   TEMP    WIND        PRES    VSBY
                                AIR SEA DIR/SP/G
                 (UTC)          (F)     (DEG/KT/KT) (MB)    (MI)
JOHNY MRCER PIER 0848            52 58  220/ 10/ 12 1011.8F
NC RESRV MASNBRO 0745            46     240/  4     1012.0
OCEAN CREST PIER NOT AVBL
SPRINGMAID  PIER 0848                               1015.4F


................COASTAL AND OFFSHORE BUOYS................


STATION/POSITION TIME  SKY/WX   TEMP    WIND        PRES    VSBY
                                AIR SEA DIR/SP/G
                 (UTC)          (F)     (DEG/KT/KT) (MB)    (MI)
DIMNDSHOAL 41025 0900            60 76  260/ 21/ 27 1011.5
CAPE LOOKOUT     0900                   240/  9/ 13 1011.9F
ONSLOW BAY 41036 NOT AVBL
ONSLOW BAY 41064 0808            60 68  230/ 16/ 19 1012.5F
ONSLOW BAY 41159 0900               68                N/A
WVE H/P(F/S)=  5/ 5

MASNBO INL 41110 0859               58                N/A
WVE H/P(F/S)=  3/ 4

WILM HARBR 41108 0900               57                N/A
WVE H/P(F/S)=  6/ 5

27SE WRITB 41037 0808            60 65  230/ 21/ 29 1013.2F
FRYING PAN 41013 0900            61 63  240/ 21/ 27 1012.4
SUNST NRSH 41024 0808            54     250/ 16/ 19 1012.2F
CAPRS NRSH 41029 0808            53 57  250/ 17/ 25 1013.5F
EDISTO     41004 0900               74  250/ 23/ 29 1013.4


..........OFFSHORE BUOYS BEYOND 100 NM OFFSHORE...........
.....IN A TRIANGLE---HAT TO BERMUDA TO BAHAMAS TO HAT.....


STATION/POSITION TIME  SKY/WX   TEMP    WIND        PRES    VSBY
                                AIR SEA DIR/SP/G
                 (UTC)          (F)     (DEG/KT/KT) (MB)    (MI)
150E HAT   41001 NOT AVBL
W BERMUDA  41048 0900            67 75  190/  6/  8 1016.0
ATLANTIC S 41049 0850            74 77   70/ 10/ 12 1013.6F
WVE H/P(F/S)=  7/ 9 SWL H/P/D(F/S/D)=  7/310/ 9

E BAHAMAS  41046 0900            78 80  160/ 10/ 14 1012.9
NE BAHAMAS 41047 0900            70      30/  8/ 12 1015.9
120E CANVRL41010 NOT AVBL

END



USA.gov is the U.S. government's official web portal to all federal, state and local government web resources and services.